Tracking 19903 objects as of 17-Oct-2019
HD Live streaming from Space Station
objects crossing your sky now

IRIDIUM 33 DEB

Track IRIDIUM 33 DEB now!
10-day predictions


NORAD ID: 33873
Int'l Code: 1997-051AS
Perigee: 690.5 km
Apogee: 724.5 km
Inclination: 86.4 °
Period: 98.8 minutes
Semi major axis: 7078 km
RCS: 0.1366 m2 (medium)
Launch date: September 14, 1997
Source: United States (US)
Launch site: TYURATAM MISSILE AND SPACE COMPLEX (TTMTR)

Note: This is SATELLITE DEBRIS
aabbcc
Your satellite tracking list
Your tracking list is empty




NASA's NSSDC Master Catalog

Two Line Element Set (TLE):
1 33873U 97051AS  19289.41019460  .00001278  00000-0  27382-3 0  9993
2 33873  86.3672 247.3007 0023988 199.6937 160.3348 14.57773800563691
Source of the keplerian elements: AFSPC